Time,TemperatureF,DewpointF,PressureIn,WindDirection,WindDirectionDegrees,WindSpeedMPH,WindSpeedGustMPH,Humidity,HourlyPrecipIn,Conditions,Clouds,dailyrainin,SoftwareType,DateUTC
2013-04-13 00:04:00,38.5,33.0,29.72,NW,305,11.0,17.0,80,0.00,,,0.90,weatherlink.com 1.10,2013-04-13 04:04:00,
2013-04-13 00:19:00,38.2,33.0,29.71,NW,325,16.0,27.0,81,0.00,,,0.90,weatherlink.com 1.10,2013-04-13 04:19:00,
2013-04-13 00:34:00,37.8,32.0,29.73,WNW,298,21.0,23.0,81,0.00,,,0.90,weatherlink.com 1.10,2013-04-13 04:34:00,
2013-04-13 00:49:00,37.5,32.0,29.73,WNW,284,18.0,30.0,81,0.00,,,0.90,weatherlink.com 1.10,2013-04-13 04:49:00,
2013-04-13 01:04:00,37.3,32.0,29.75,WNW,295,11.0,32.0,81,0.00,,,0.90,weatherlink.com 1.10,2013-04-13 05:04:00,
2013-04-13 01:19:00,37.0,32.0,29.77,West,277,13.0,19.0,81,0.00,,,0.00,weatherlink.com 1.10,2013-04-13 05:19:00,
2013-04-13 01:34:00,36.8,32.0,29.76,SW,236,14.0,22.0,81,0.00,,,0.00,weatherlink.com 1.10,2013-04-13 05:34:00,
2013-04-13 01:50:00,36.6,31.0,29.75,SW,229,7.0,25.0,81,0.00,,,0.00,weatherlink.com 1.10,2013-04-13 05:50:00,
2013-04-13 02:05:00,36.4,31.0,29.75,WNW,302,23.0,23.0,81,0.00,,,0.00,weatherlink.com 1.10,2013-04-13 06:05:00,
2013-04-13 02:20:00,36.4,31.0,29.74,WNW,290,9.0,27.0,81,0.00,,,0.00,weatherlink.com 1.10,2013-04-13 06:20:00,
2013-04-13 02:35:00,36.4,31.0,29.75,NW,312,9.0,20.0,81,0.00,,,0.00,weatherlink.com 1.10,2013-04-13 06:35:00,
2013-04-13 03:05:00,36.2,31.0,29.75,West,277,1.0,23.0,82,0.00,,,0.00,weatherlink.com 1.10,2013-04-13 07:05:00,
2013-04-13 03:20:00,36.4,31.0,29.76,NW,317,15.0,26.0,81,0.00,,,0.00,weatherlink.com 1.10,2013-04-13 07:20:00,
2013-04-13 03:35:00,36.4,31.0,29.78,North,5,6.0,16.0,81,0.00,,,0.00,weatherlink.com 1.10,2013-04-13 07:35:00,
2013-04-13 03:50:00,36.2,31.0,29.77,NW,308,11.0,14.0,82,0.00,,,0.00,weatherlink.com 1.10,2013-04-13 07:50:00,
2013-04-13 04:05:00,36.5,31.0,29.77,NW,323,7.0,18.0,81,0.00,,,0.00,weatherlink.com 1.10,2013-04-13 08:05:00,
2013-04-13 04:35:00,36.6,32.0,29.77,WNW,284,6.0,22.0,82,0.00,,,0.00,weatherlink.com 1.10,2013-04-13 08:35:00,
2013-04-13 04:50:00,36.6,32.0,29.78,WNW,292,9.0,20.0,83,0.00,,,0.00,weatherlink.com 1.10,2013-04-13 08:50:00,
2013-04-13 05:05:00,36.4,32.0,29.78,NW,315,6.0,16.0,84,0.00,,,0.00,weatherlink.com 1.10,2013-04-13 09:05:00,
2013-04-13 05:20:00,36.1,32.0,29.78,NW,304,15.0,16.0,85,0.00,,,0.00,weatherlink.com 1.10,2013-04-13 09:20:00,
2013-04-13 05:35:00,35.8,32.0,29.78,West,278,10.0,19.0,86,0.00,,,0.00,weatherlink.com 1.10,2013-04-13 09:35:00,
2013-04-13 05:50:00,35.5,32.0,29.78,NNW,344,2.0,18.0,87,0.00,,,0.00,weatherlink.com 1.10,2013-04-13 09:50:00,
2013-04-13 06:05:00,35.3,32.0,29.78,WNW,299,5.0,20.0,87,0.00,,,0.00,weatherlink.com 1.10,2013-04-13 10:05:00,
2013-04-13 06:20:00,35.3,32.0,29.78,NNW,340,20.0,20.0,87,0.00,,,0.00,weatherlink.com 1.10,2013-04-13 10:20:00,
2013-04-13 06:35:00,35.4,32.0,29.78,NNW,345,5.0,22.0,87,0.00,,,0.00,weatherlink.com 1.10,2013-04-13 10:35:00,
2013-04-13 06:50:00,35.2,32.0,29.79,NW,318,12.0,26.0,87,0.00,,,0.00,weatherlink.com 1.10,2013-04-13 10:50:00,
2013-04-13 07:05:00,35.0,32.0,29.78,WNW,298,13.0,26.0,88,0.00,,,0.00,weatherlink.com 1.10,2013-04-13 11:05:00,
2013-04-13 07:20:00,35.0,32.0,29.79,NW,311,4.0,30.0,88,0.00,,,0.00,weatherlink.com 1.10,2013-04-13 11:20:00,
2013-04-13 07:35:00,35.1,32.0,29.82,North,349,7.0,21.0,88,0.00,,,0.00,weatherlink.com 1.10,2013-04-13 11:35:00,
2013-04-13 07:50:00,35.4,32.0,29.83,WSW,240,5.0,23.0,87,0.00,,,0.00,weatherlink.com 1.10,2013-04-13 11:50:00,
2013-04-13 08:05:00,35.6,32.0,29.85,NW,319,11.0,19.0,87,0.00,,,0.00,weatherlink.com 1.10,2013-04-13 12:05:00,
2013-04-13 08:20:00,36.1,33.0,29.85,WNW,295,7.0,18.0,88,0.00,,,0.00,weatherlink.com 1.10,2013-04-13 12:20:00,
2013-04-13 08:35:00,36.7,33.0,29.86,NNW,342,8.0,17.0,87,0.00,,,0.00,weatherlink.com 1.10,2013-04-13 12:35:00,
2013-04-13 08:50:00,37.1,34.0,29.86,WSW,238,9.0,19.0,87,0.00,,,0.00,weatherlink.com 1.10,2013-04-13 12:50:00,
2013-04-13 09:05:00,37.5,34.0,29.87,WNW,301,8.0,19.0,86,0.00,,,0.00,weatherlink.com 1.10,2013-04-13 13:05:00,
2013-04-13 09:21:00,38.0,33.0,29.87,NW,315,7.0,18.0,83,0.00,,,0.00,weatherlink.com 1.10,2013-04-13 13:21:00,
2013-04-13 09:35:00,38.9,34.0,29.87,NNW,333,7.0,16.0,82,0.00,,,0.00,weatherlink.com 1.10,2013-04-13 13:35:00,
2013-04-13 09:50:00,39.1,33.0,29.88,WNW,301,9.0,18.0,78,0.00,,,0.00,weatherlink.com 1.10,2013-04-13 13:50:00,
2013-04-13 10:21:00,40.8,33.0,29.91,West,275,5.0,11.0,73,0.00,,,0.00,weatherlink.com 1.10,2013-04-13 14:21:00,
2013-04-13 12:06:00,47.5,28.0,29.96,South,186,4.0,9.0,48,0.00,,,0.00,weatherlink.com 1.10,2013-04-13 16:06:00,
2013-04-13 12:21:00,48.0,28.0,29.96,NNW,328,6.0,17.0,46,0.00,,,0.00,weatherlink.com 1.10,2013-04-13 16:21:00,
2013-04-13 12:36:00,48.8,27.0,29.97,NW,320,3.0,9.0,43,0.00,,,0.00,weatherlink.com 1.10,2013-04-13 16:36:00,
2013-04-13 12:51:00,49.9,28.0,29.97,North,5,2.0,13.0,43,0.00,,,0.00,weatherlink.com 1.10,2013-04-13 16:51:00,
2013-04-13 13:36:00,51.3,24.0,29.97,NNW,340,9.0,22.0,34,0.00,,,0.00,weatherlink.com 1.10,2013-04-13 17:36:00,
2013-04-13 13:51:00,51.1,27.0,29.97,North,9,9.0,11.0,39,0.00,,,0.00,weatherlink.com 1.10,2013-04-13 17:51:00,
2013-04-13 14:06:00,52.3,28.0,29.98,WNW,293,6.0,12.0,40,0.00,,,0.00,weatherlink.com 1.10,2013-04-13 18:06:00,
2013-04-13 14:21:00,52.2,26.0,29.97,NW,318,4.0,12.0,37,0.00,,,0.00,weatherlink.com 1.10,2013-04-13 18:21:00,
2013-04-13 14:36:00,51.9,27.0,29.97,WNW,292,9.0,11.0,39,0.00,,,0.00,weatherlink.com 1.10,2013-04-13 18:36:00,
2013-04-13 14:51:00,50.1,27.0,29.97,West,273,6.0,15.0,41,0.00,,,0.00,weatherlink.com 1.10,2013-04-13 18:51:00,
2013-04-13 15:06:00,50.8,26.0,29.96,NNE,30,5.0,16.0,39,0.00,,,0.00,weatherlink.com 1.10,2013-04-13 19:06:00,
2013-04-13 15:21:00,50.8,27.0,29.96,NW,315,9.0,14.0,40,0.00,,,0.00,weatherlink.com 1.10,2013-04-13 19:21:00,
2013-04-13 15:36:00,51.0,28.0,29.96,NNW,342,3.0,10.0,42,0.00,,,0.00,weatherlink.com 1.10,2013-04-13 19:36:00,
2013-04-13 15:51:00,52.2,29.0,29.96,NW,321,4.0,13.0,41,0.00,,,0.00,weatherlink.com 1.10,2013-04-13 19:51:00,
2013-04-13 16:06:00,52.6,30.0,29.96,West,273,3.0,9.0,42,0.00,,,0.00,weatherlink.com 1.10,2013-04-13 20:06:00,
2013-04-13 16:21:00,52.1,29.0,29.96,NNW,336,5.0,11.0,42,0.00,,,0.00,weatherlink.com 1.10,2013-04-13 20:21:00,
2013-04-13 16:36:00,52.2,30.0,29.95,North,355,3.0,12.0,42,0.00,,,0.00,weatherlink.com 1.10,2013-04-13 20:36:00,
2013-04-13 16:51:00,51.9,30.0,29.95,West,279,9.0,13.0,43,0.00,,,0.00,weatherlink.com 1.10,2013-04-13 20:51:00,
2013-04-13 17:06:00,51.8,30.0,29.95,SW,219,8.0,20.0,43,0.00,,,0.00,weatherlink.com 1.10,2013-04-13 21:06:00,
2013-04-13 17:21:00,51.5,31.0,29.96,WNW,288,7.0,10.0,45,0.00,,,0.00,weatherlink.com 1.10,2013-04-13 21:21:00,
2013-04-13 17:36:00,51.0,30.0,29.95,NNE,15,4.0,16.0,44,0.00,,,0.00,weatherlink.com 1.10,2013-04-13 21:36:00,
2013-04-13 17:51:00,50.8,30.0,29.96,NNW,340,4.0,15.0,45,0.00,,,0.00,weatherlink.com 1.10,2013-04-13 21:51:00,
2013-04-13 18:07:00,50.4,30.0,29.97,North,5,4.0,16.0,46,0.00,,,0.00,weatherlink.com 1.10,2013-04-13 22:07:00,
2013-04-13 18:21:00,50.3,30.0,29.97,West,274,5.0,15.0,45,0.00,,,0.00,weatherlink.com 1.10,2013-04-13 22:21:00,
2013-04-13 18:36:00,49.8,30.0,29.98,WNW,301,5.0,10.0,46,0.00,,,0.00,weatherlink.com 1.10,2013-04-13 22:36:00,
2013-04-13 18:51:00,49.2,30.0,29.98,NW,318,4.0,11.0,47,0.00,,,0.00,weatherlink.com 1.10,2013-04-13 22:51:00,
2013-04-13 19:06:00,48.2,31.0,29.98,NE,45,3.0,9.0,51,0.00,,,0.00,weatherlink.com 1.10,2013-04-13 23:06:00,
2013-04-13 19:21:00,47.7,30.0,29.98,WNW,302,5.0,5.0,51,0.00,,,0.00,weatherlink.com 1.10,2013-04-13 23:21:00,
2013-04-13 19:36:00,47.2,30.0,29.98,NW,320,5.0,10.0,52,0.00,,,0.00,weatherlink.com 1.10,2013-04-13 23:36:00,
2013-04-13 19:51:00,46.7,31.0,29.98,NW,311,4.0,7.0,54,0.00,,,0.00,weatherlink.com 1.10,2013-04-13 23:51:00,
2013-04-13 20:06:00,46.3,31.0,29.99,WNW,298,5.0,11.0,55,0.00,,,0.00,weatherlink.com 1.10,2013-04-14 00:06:00,
2013-04-13 20:22:00,45.9,31.0,29.99,West,280,2.0,7.0,57,0.00,,,0.00,weatherlink.com 1.10,2013-04-14 00:22:00,
2013-04-13 20:37:00,45.5,31.0,29.99,NNE,15,4.0,8.0,57,0.00,,,0.00,weatherlink.com 1.10,2013-04-14 00:37:00,
2013-04-13 20:51:00,45.2,31.0,29.99,WNW,291,2.0,7.0,58,0.00,,,0.00,weatherlink.com 1.10,2013-04-14 00:51:00,
2013-04-13 21:07:00,44.9,31.0,30.00,WNW,300,3.0,8.0,58,0.00,,,0.00,weatherlink.com 1.10,2013-04-14 01:07:00,
2013-04-13 21:22:00,44.7,31.0,30.00,East,90,3.0,6.0,59,0.00,,,0.00,weatherlink.com 1.10,2013-04-14 01:22:00,
2013-04-13 21:37:00,44.6,31.0,30.01,North,355,5.0,8.0,59,0.00,,,0.00,weatherlink.com 1.10,2013-04-14 01:37:00,
2013-04-13 21:52:00,44.6,31.0,30.01,NW,319,5.0,9.0,59,0.00,,,0.00,weatherlink.com 1.10,2013-04-14 01:52:00,
2013-04-13 22:07:00,44.4,31.0,30.02,WNW,294,4.0,10.0,60,0.00,,,0.00,weatherlink.com 1.10,2013-04-14 02:07:00,
2013-04-13 22:22:00,44.4,31.0,30.03,NNW,339,3.0,9.0,59,0.00,,,0.00,weatherlink.com 1.10,2013-04-14 02:22:00,
2013-04-13 22:37:00,44.4,31.0,30.03,NNW,341,3.0,7.0,59,0.00,,,0.00,weatherlink.com 1.10,2013-04-14 02:37:00,
2013-04-13 22:52:00,44.3,31.0,30.03,NNW,329,4.0,9.0,59,0.00,,,0.00,weatherlink.com 1.10,2013-04-14 02:52:00,
2013-04-13 23:22:00,44.3,30.0,30.02,West,264,4.0,7.0,58,0.00,,,0.00,weatherlink.com 1.10,2013-04-14 03:22:00,
2013-04-13 23:37:00,44.5,30.0,30.02,NNW,334,5.0,7.0,57,0.00,,,0.00,weatherlink.com 1.10,2013-04-14 03:37:00,
2013-04-13 23:52:00,44.1,30.0,30.02,NW,315,2.0,4.0,58,0.00,,,0.00,weatherlink.com 1.10,2013-04-14 03:52:00,